Location: *
(46.9141°N, 15.4309°E)
Time: 03:52:48
(UTC+00:00)

Daily predictions for brighter satellites

Satellite Brightness Start Highest point End
(mag) Time Altitude Azimuth Time Altitude Azimuth Time Altitude Azimuth
Cosmos 2082 Rocket 4.1 01:29:19 25° NNE 01:29:19 25° NNE 01:31:39 10° NNE
USA 267 4.0 01:25:37 10° NE 01:30:05 47° ENE 01:30:05 47° ENE
ADEOS II 4.3 01:28:36 10° NNE 01:30:09 20° NNE 01:30:09 20° NNE
IDEFIX/ARIANE 42P 4.5 01:33:47 10° NNE 01:36:04 25° NNE 01:36:04 25° NNE
CENTAUR R/B 4.3 01:42:04 10° NW 01:49:14 38° NNE 01:57:12 10° E
Cosmos 2344 4.4 01:56:14 35° SE 01:57:40 38° ESE 02:04:36 10° NE
USA 234 4.2 02:00:22 10° SE 02:03:49 34° SE 02:03:49 34° SE
CZ-2D R/B 4.5 02:07:42 10° NNW 02:08:22 13° NNW 02:08:22 13° NNW
Lacrosse 4 Rocket 3.6 02:15:31 23° E 02:15:31 23° E 02:17:38 10° ESE
ISS -0.4 02:25:47 13° ENE 02:25:47 13° ENE 02:26:18 10° ENE
Cosmos 2221 4.1 02:27:50 34° NE 02:27:50 34° NE 02:30:36 10° NNE
Cosmos 2237 4.3 02:24:17 10° NNW 02:30:25 70° E 02:35:44 10° SSE
S3M 4.3 02:29:14 47° SSE 02:30:48 62° E 02:36:54 10° NNE
Cosmos 1745 Rocket 4.1 02:28:47 10° N 02:35:07 75° E 02:39:31 21° SSE
MSX 4.0 02:33:32 10° N 02:38:23 59° NNW 02:38:23 59° NNW
Lacrosse 5 2.4 02:42:08 52° N 02:42:38 54° NNE 02:47:35 10° ESE
ALOS 3.8 02:44:06 10° NNE 02:48:22 34° E 02:51:39 15° SSE
Cosmos 2360 Rocket 2.2 02:42:54 10° NNW 02:48:38 83° ENE 02:54:18 10° SSE
CZ-2C R/B 4.4 02:45:10 10° NNE 02:47:14 30° NNE 02:47:14 30° NNE
USA 238 DEB 4.1 02:46:31 10° NW 02:53:45 70° NE 03:01:17 10° SE
USA 238 4.1 02:46:38 10° NW 02:53:51 69° NE 03:01:22 10° SE
ARIANE 5 R/B 3.5 02:50:05 10° N 02:53:20 35° NNW 02:53:20 35° NNW
Cosmos 1500 Rocket 4.3 02:54:55 10° N 02:57:59 45° N 02:57:59 45° N
CZ-2C R/B 2.2 02:54:42 10° NNE 02:59:30 82° ESE 02:59:46 77° SSE
Meteor 1-4 Rocket 4.2 03:03:40 28° N 03:03:40 28° N 03:05:29 10° N
USA 276 4.4 03:03:56 23° ESE 03:03:56 23° ESE 03:05:40 10° E
Cosmos 1386 Rocket 4.4 03:00:22 10° NNW 03:06:44 69° W 03:12:10 14° S
CZ-4C R/B 4.0 03:04:17 10° SSE 03:08:12 25° ESE 03:12:41 10° ENE
SeaSat 1 3.8 03:04:54 10° ESE 03:09:29 39° NE 03:14:04 10° NNW
H-2A R/B 3.1 03:05:31 10° SE 03:09:32 43° ENE 03:13:29 10° N
Cosmos 2333 Rocket 2.8 03:04:35 10° NNW 03:10:18 59° ENE 03:15:59 10° SE
Cosmos 2082 Rocket 4.0 03:11:10 17° NW 03:11:10 17° NW 03:14:43 10° N
Cosmos 1842 Rocket 4.3 03:13:03 39° NNW 03:13:03 39° NNW 03:16:04 10° N
Spot 4 Rocket 4.3 03:07:25 10° N 03:12:07 49° WNW 03:12:07 49° WNW
ADEOS II 4.2 03:10:03 10° NNW 03:11:06 13° NW 03:11:06 13° NW
USA 267 3.8 03:08:45 10° NE 03:14:57 47° NNW 03:17:26 33° WNW
Cosmos 1484 Rocket 3.6 03:13:55 10° NNE 03:17:31 47° E 03:19:29 23° SSE
IDEFIX/ARIANE 42P 4.0 03:14:03 10° N 03:16:52 22° NW 03:16:52 22° NW
Cosmos 2251 Rocket 3.7 03:18:56 25° S 03:22:06 73° ESE 03:27:29 10° NNE
NOSS 3-2 (A) 4.0 03:16:16 10° NW 03:23:48 76° SW 03:32:19 10° SSE
BREEZE-M DEB (TANK) 3.0 03:22:53 52° W 03:23:57 78° NNW 03:26:48 10° ENE
Cosmos 883 Rocket 4.3 03:20:37 15° S 03:25:54 82° W 03:32:04 10° N
Cosmos 1553 Rocket 4.5 03:26:48 37° W 03:27:29 38° WNW 03:33:18 10° N
Geosat 4.0 03:24:18 10° NNE 03:29:21 81° ESE 03:32:20 25° SSW
Meteor 2-17 Rocket 4.3 03:24:04 10° N 03:30:09 87° W 03:36:12 10° S
Cosmos 2219 Rocket 2.4 03:27:50 10° NNW 03:33:32 74° ENE 03:39:11 10° SSE
COSMOS 2487 2.2 03:35:20 67° SSW 03:35:45 88° ESE 03:39:11 10° NNE
PAYLOAD A 4.5 03:34:12 10° N 03:39:11 44° WNW 03:40:52 34° WSW
CENTAUR R/B 3.2 03:32:43 10° NW 03:40:51 84° SW 03:49:46 10° SSE
COSMOS 2428 2.9 03:35:26 10° NNW 03:41:11 73° ENE 03:46:53 10° SSE
Cosmos 614 Rocket 4.2 03:37:02 10° SSW 03:42:14 73° ESE 03:47:27 10° NNE
Cosmos 1606 2.7 03:42:18 45° SW 03:43:12 58° WNW 03:47:04 10° N
Cosmos 2315 Rocket 3.9 03:38:18 10° SSW 03:44:29 73° W 03:50:43 10° N
PSLV R/B 3.8 03:41:53 10° N 03:46:06 47° WNW 03:47:30 34° WSW
USA 234 4.2 03:45:27 10° S 03:50:35 24° SW 03:51:15 24° WSW
BREEZE-M DEB (TANK) 3.3 03:50:58 24° N 03:50:58 24° N 03:52:45 10° NE
Meteor 1-25 Rocket 4.3 03:46:19 10° N 03:51:55 81° ENE 03:57:28 10° SSE
Lacrosse 4 Rocket 2.1 03:51:56 33° WSW 03:52:18 34° WSW 03:56:16 10° S
BREEZE M DEB (TANK) 2.3 03:51:34 37° WNW 03:52:33 68° NNE 03:58:28 10° E
METEOR-M 4.0 03:50:50 10° NNE 03:56:12 78° WNW 04:01:31 10° SSW
ATLAS 5 CENTAUR R/B 2.5 03:55:58 10° SSW 03:59:41 43° ESE 04:03:50 10° NE
Cosmos 1805 Rocket 3.9 03:55:38 10° NNW 03:59:53 44° W 04:04:06 10° SSW
ISS -3.3 03:58:45 26° NW 04:00:23 56° NNE 04:03:42 10° E
Cosmos 1602 4.2 03:56:58 10° N 04:00:52 65° ENE 04:04:45 10° SSE
NOSS 3-4 (A) 3.9 03:56:02 10° SSW 04:01:45 60° ESE 04:07:53 10° NE
NOSS 3-4 (C) 3.9 03:56:08 10° SSW 04:01:50 59° ESE 04:07:58 10° NE
ERS-2 4.5 04:00:38 10° SE 04:03:42 26° ENE 04:06:47 10° N
Cosmos 2322 3.8 03:58:35 10° NW 04:04:08 54° WSW 04:09:36 10° S
Cosmos 2221 4.1 04:04:42 18° WNW 04:04:42 18° WNW 04:07:16 10° NNW
NOSS 3-2 (C) 4.1 03:56:55 10° NW 04:04:26 69° SW 04:12:56 10° SSE
COSMO-SKYMED 1 2.7 04:00:42 10° SSE 04:05:01 81° ENE 04:09:24 10° NNW
Cosmos 2074 Rocket 4.1 04:00:44 10° N 04:06:59 84° E 04:13:11 10° S
Cosmos 1933 3.2 04:03:17 10° SSW 04:07:17 70° W 04:11:21 10° N
FENGYUN 3A 3.9 04:04:42 10° N 04:09:53 46° WNW 04:15:03 10° SW
Cosmos 2344 3.8 04:06:15 18° WSW 04:11:43 53° NW 04:19:47 10° NE
BREEZE-M DEB (TANK) 4.0 04:08:39 18° WNW 04:12:03 86° NNE 04:30:03 10° ESE
Envisat 4.4 04:11:36 10° NNE 04:16:26 42° E 04:21:14 10° SSE
ATLAS 2AS CENTAUR R/B 3.7 04:08:58 10° SSW 04:16:40 58° ESE 04:24:18 10° NE
Meteor 1-20 Rocket 4.3 04:14:30 10° NNW 04:20:06 58° W 04:25:44 10° S
YAOGAN 6 4.2 04:17:31 10° NNE 04:20:48 36° E 04:24:03 10° SSE
SJ-12 3.8 04:17:17 10° N 04:21:21 77° WNW 04:25:24 10° SSW
Sich 1 3.6 04:17:38 10° NNW 04:21:39 34° W 04:25:37 10° SSW
Cosmos 1666 Rocket 3.6 04:19:08 10° NNW 04:23:23 53° W 04:27:39 10° S
Lacrosse 5 2.4 04:21:22 13° WNW 04:25:30 38° SW 04:30:08 10° SSE
ALOS 3.1 04:21:38 10° N 04:25:42 30° WNW 04:29:45 10° SW
ADEOS 3.6 04:20:53 10° N 04:26:04 64° WNW 04:31:14 10° SSW
H-2A R/B 3.2 04:22:37 10° NNE 04:26:31 66° E 04:30:22 10° S
Meteor 1-31 Rocket 2.9 04:25:34 10° N 04:29:20 50° WNW 04:33:03 10° SSW
Cosmos 1140 Rocket 3.5 04:24:50 10° SSW 04:30:03 89° WNW 04:35:16 10° NNE
Cosmos 2184 Rocket 4.0 04:25:16 10° NNW 04:31:33 68° W 04:37:51 10° S
Cosmos 2360 Rocket 3.6 04:28:28 10° WNW 04:31:52 16° W 04:35:15 10° SW
CZ-4B R/B 3.3 04:28:36 10° NNE 04:33:08 83° ESE 04:37:38 10° SSW
Cosmos 1812 3.9 04:29:29 10° SSE 04:33:09 47° E 04:36:52 10° NNE
CZ-4B R/B 1.4 04:31:50 10° S 04:34:50 46° W 04:37:48 10° NNW
CZ-2C R/B 4.0 04:34:29 10° NNW 04:37:03 15° WNW 04:39:09 11° W
CZ-2C R/B 3.8 04:32:45 10° SE 04:38:10 51° ENE 04:43:35 10° N
Cosmos 2237 Rocket 2.4 04:32:29 10° NNW 04:38:12 77° ENE 04:43:51 10° SSE
USA 276 2.2 04:36:12 14° W 04:38:52 68° NNW 04:42:04 10° ENE
Cosmos 909 Rocket 4.2 04:32:38 10° SW 04:39:07 59° NW 04:45:22 10° NNE
Cosmos 1023 Rocket 4.5 04:37:31 10° SSW 04:42:42 69° WNW 04:47:52 10° NNE
H-2A R/B 3.3 04:42:38 10° SW 04:45:42 19° W 04:48:44 10° NW
SeaSat 1 3.1 04:42:31 10° S 04:47:00 35° WSW 04:51:31 10° NW
Cosmos 1484 Rocket 4.4 04:49:23 10° NNW 04:51:33 15° WNW 04:53:44 10° W
Meteor 2-12 Rocket 4.5 04:46:10 10° NNW 04:52:21 78° W 04:58:29 10° S
NOSS 0 Rocket 4.0 04:46:39 10° NW 04:52:43 60° WSW 04:58:46 10° S
SKYMED 2 4.2 04:49:18 10° SSW 04:53:13 33° W 04:57:09 10° NNW
Cosmos 1437 Rocket 3.3 04:49:34 10° SW 04:53:25 40° WNW 04:57:14 10° N
ATLAS 3B R/B 3.1 04:46:46 10° NW 04:53:45 71° NE 05:01:01 10° SE
Cosmos 2333 Rocket 3.2 04:49:35 10° NW 04:54:09 25° WSW 04:58:43 10° SSW
Cosmos 1151 Rocket 3.6 04:50:57 10° SW 04:54:56 36° WNW 04:58:54 10° N
CZ-4C R/B 2.3 04:51:09 10° WSW 04:56:06 58° NW 05:02:07 10° NE
Cosmos 1633 Rocket 3.9 04:52:25 10° NNW 04:56:15 29° W 05:00:02 10° SSW
Cosmos 1782 3.3 04:53:09 10° SW 04:56:50 37° WNW 05:00:32 10° N
USA 267 4.3 04:51:17 10° ENE 04:57:09 37° N 05:03:01 10° WNW
Cosmos 2227 Rocket 3.2 04:51:56 10° S 04:57:26 54° ESE 05:02:57 10° NE
PSLV R/B 4.4 04:53:37 10° NNE 04:57:34 62° ESE 05:01:24 10° S
SL-16 R/B 3.5 04:54:12 10° NNW 04:59:40 45° NE 05:05:06 10° SE
MOS 1 Rocket 4.1 04:57:08 10° SSW 05:00:52 27° W 05:04:45 10° NW
H-2A R/B 4.3 05:00:56 10° WSW 05:09:31 20° SW 05:13:10 10° S
